Погода в Кос-Истеке

Казахстан     50°44′54″N   57°53′22″E
темп.,
°C
ветер,
м/с
пор.,
м/с
влажн.,
%
обл.,
%
осадки,
мм/ч
давл.,
гПа
погр.,
м
1 марта, пн
пн123:00−14з71195100 1.9 1010276
02:00−17зюз6109899 0.1 1012233
05:00−19з58100100 0.2 1014173
08:00−20зюз58100100 0.1 1015142
11:00−17з579799 0.1 1017219
14:00−15зюз5797100 0.1 1018250
17:00−15з5896100 0.1 1019316
20:00−16з5997100 0.1 1020291
2 марта, вт
вт223:00−17з51098100 0.2 1021253
02:00−19з510100100 0.1 1021202
05:00−21з610100100 0.1 1022186
08:00−24зюз510100100 0.1 1022174
11:00−21зюз710100100 0.1 1022243
14:00−18зюз71299100 0.0 1021279
17:00−15юз81495100 0.0 1019392
20:00−14юз91596100 0.0 1017417
3 марта, ср
ср323:00−10юз101894100 0.2 1015546
02:00−7юз101794100 0.4 1012650
05:00−6юз101795100 1.2 1010801
08:00−5юз101795100 1.3 1008845
11:00−4юз111695100 2.3 1008888
14:00−2юз101596100 1.2 1007951
17:00−2юз91497100 2.7 1005984
20:00−2юз81397100 1.5 1005748
4 марта, чт
чт423:00−3юз71297100 2.8 1005612
02:00−3зюз61197100 0.9 1004512
05:00−3з5997100 1.9 1005378
08:00−9зсз599799 0.4 1007192
11:00−9зсз61196100 0.4 1010371
14:00−8зсз61192100 0.1 1012449
17:00−9з6109494 0.1 1014437
20:00−12зюз61299100 0.1 1016283
5 марта, пт
пт523:00−12юз81798100 0.1 1017352
02:00−8юз111894100 0.3 1016652
05:00−8юз122194100 0.7 1015659
08:00−7юз122193100 0.1 1015645
11:00−5юз122089100 0.1 1015766
14:00−3зюз12198789 0.0 1016857
17:00−3зюз12198992 0.0 1016835
20:00−3юз101792100 0.0 1017763